FW0450 Weather Reports


time (UTC)temp
C
wind
direction
speed
KPH
gust
KPH
rain 1hr
cm
rain 24hr
cm
rain mn
cm
humidity
%
barometer
mb
20200220070503 10 1 4.8 8.0 0.00 0.00 0.00 66 1024.2
20200220070003 10 1 6.4 8.0 0.00 0.00 0.00 65 1023.9
20200220065503 10 3 6.4 9.7 0.00 0.00 0.00 65 1024.0
20200220065002 10 16 6.4 9.7 0.00 0.00 0.00 67 1023.9
20200220064503 10 16 6.4 11.3 0.00 0.00 0.00 69 1024.0
20200220064003 9 359 8.0 12.9 0.00 0.00 0.00 72 1023.9
20200220063503 8 2 8.0 12.9 0.00 0.00 0.00 74 1023.9
20200220063003 7 357 8.0 11.3 0.00 0.00 0.00 73 1024.2
20200220062503 7 7 8.0 17.7 0.00 0.00 0.00 71 1024.0
20200220062002 7 8 9.7 17.7 0.00 0.00 0.00 70 1023.9
20200220061504 8 56 11.3 17.7 0.00 0.00 0.00 63 1023.9
20200220061003 10 113 11.3 12.9 0.00 0.00 0.00 63 1023.7
20200220060504 10 119 11.3 12.9 0.00 0.00 0.00 63 1023.7
20200220060003 10 110 9.7 12.9 0.00 0.00 0.00 63 1024.0
20200220055502 10 109 11.3 12.9 0.00 0.00 0.00 63 1023.7
20200220055003 10 120 11.3 12.9 0.00 0.00 0.00 63 1023.8
20200220054503 10 126 9.7 12.9 0.00 0.00 0.00 63 1024.0
20200220054003 10 118 11.3 14.5 0.00 0.00 0.00 63 1023.8
20200220053503 10 112 11.3 14.5 0.00 0.00 0.00 64 1023.8
20200220053003 10 105 11.3 12.9 0.00 0.00 0.00 64 1023.9
20200220052503 10 104 11.3 14.5 0.00 0.00 0.00 65 1023.9
20200220052002 10 107 11.3 14.5 0.00 0.00 0.00 66 1024.1
20200220051503 10 110 9.7 12.9 0.00 0.00 0.00 66 1024.1
20200220051003 10 116 8.0 12.9 0.00 0.00 0.00 65 1024.1
20200220050503 11 121 8.0 12.9 0.00 0.00 0.00 63 1024.0
20200220050003 11 123 8.0 12.9 0.00 0.00 0.00 63 1024.2
20200220045503 11 122 8.0 12.9 0.00 0.00 0.00 62 1024.2
20200220045003 11 129 8.0 9.7 0.00 0.00 0.00 62 1024.4
20200220044503 11 134 6.4 9.7 0.00 0.00 0.00 62 1024.5
20200220044003 11 136 6.4 8.0 0.00 0.00 0.00 62 1024.4
20200220043503 11 131 6.4 8.0 0.00 0.00 0.00 62 1024.4
20200220043003 11 131 6.4 8.0 0.00 0.00 0.00 63 1024.4
20200220042504 11 135 6.4 9.7 0.00 0.00 0.00 63 1024.5
20200220042004 11 133 8.0 9.7 0.00 0.00 0.00 64 1024.6
20200220041503 11 133 8.0 9.7 0.00 0.00 0.00 64 1024.7
20200220041004 11 138 8.0 11.3 0.00 0.00 0.00 64 1024.7
20200220040504 11 138 8.0 11.3 0.00 0.00 0.00 64 1024.7
20200220040005 11 135 8.0 9.7 0.00 0.00 0.00 64 1024.4
20200220035503 11 135 8.0 9.7 0.00 0.00 0.00 65 1024.7
20200220035003 11 136 6.4 9.7 0.00 0.00 0.00 65 1024.7
20200220034503 11 140 6.4 8.0 0.00 0.00 0.00 65 1024.8
20200220034004 11 145 4.8 6.4 0.00 0.00 0.00 65 1024.8
20200220033503 11 141 4.8 6.4 0.00 0.00 0.00 65 1024.9
20200220033003 11 135 4.8 6.4 0.00 0.00 0.00 65 1024.7
20200220032503 11 136 6.4 6.4 0.00 0.00 0.00 65 1024.7
20200220032003 11 136 6.4 6.4 0.00 0.00 0.00 65 1024.7
20200220031503 11 135 6.4 8.0 0.00 0.00 0.00 65 1024.9
20200220031003 11 135 6.4 8.0 0.00 0.00 0.00 64 1025.0
20200220030503 11 136 6.4 8.0 0.00 0.00 0.00 64 1024.9
20200220030003 11 141 4.8 8.0 0.00 0.00 0.00 64 1025.0
20200220025503 11 161 4.8 6.4 0.00 0.00 0.00 64 1025.0
20200220025004 11 160 4.8 6.4 0.00 0.00 0.00 64 1025.1
20200220024504 11 143 4.8 6.4 0.00 0.00 0.00 65 1025.1
20200220024003 11 145 4.8 6.4 0.00 0.00 0.00 65 1025.2
20200220023503 11 143 4.8 6.4 0.00 0.00 0.00 65 1025.3
20200220023003 11 138 4.8 6.4 0.00 0.00 0.00 65 1025.4
20200220022503 11 135 4.8 6.4 0.00 0.00 0.00 64 1025.5
20200220022005 11 135 3.2 6.4 0.00 0.00 0.00 64 1025.5
20200220021503 11 135 3.2 4.8 0.00 0.00 0.00 64 1025.5
20200220021005 11 135 3.2 4.8 0.00 0.00 0.00 65 1025.5
20200220020503 11 135 3.2 4.8 0.00 0.00 0.00 66 1025.8
20200220020004 11 117 3.2 4.8 0.00 0.00 0.00 67 1025.6
20200220015504 11 96 4.8 6.4 0.00 0.00 0.00 70 1025.4
20200220015003 11 90 4.8 6.4 0.00 0.00 0.00 73 1025.7
20200220014504 11 90 4.8 6.4 0.00 0.00 0.00 74 1025.7
20200220014004 11 90 4.8 6.4 0.00 0.00 0.00 75 1025.6
20200220013503 10 90 4.8 6.4 0.00 0.00 0.00 76 1025.5
20200220013003 10 90 6.4 6.4 0.00 0.00 0.00 76 1025.7
20200220012503 10 90 6.4 8.0 0.00 0.00 0.00 76 1025.9
20200220012003 10 90 6.4 8.0 0.00 0.00 0.00 75 1025.9
20200220011503 10 90 6.4 9.7 0.00 0.00 0.00 75 1026.0
20200220011004 11 90 8.0 9.7 0.00 0.00 0.00 75 1025.9
20200220010504 10 85 6.4 8.0 0.00 0.00 0.00 76 1025.9
20200220010003 10 79 8.0 8.0 0.00 0.00 0.00 76 1025.9
20200220005503 10 85 8.0 9.7 0.00 0.00 0.00 76 1025.9
20200220005004 10 90 8.0 9.7 0.00 0.00 0.00 76 1026.0
20200220004504 10 87 8.0 11.3 0.00 0.00 0.00 76 1026.0
20200220004004 10 87 8.0 11.3 0.00 0.00 0.00 75 1026.1
20200220003504 10 89 9.7 11.3 0.00 0.00 0.00 75 1026.0
20200220003003 11 89 9.7 11.3 0.00 0.00 0.00 75 1026.1
20200220002504 11 90 9.7 11.3 0.00 0.00 0.00 75 1026.2
20200220002004 11 90 9.7 11.3 0.00 0.00 0.00 75 1026.4
20200220001503 11 90 9.7 11.3 0.00 0.00 0.00 75 1026.4
20200220001003 11 87 9.7 11.3 0.00 0.00 0.00 76 1026.3
20200220000504 10 86 9.7 11.3 0.00 0.00 0.00 76 1026.4
20200220000008 10 78 9.7 12.9 0.00 0.00 0.00 76 1026.4
20200219235504 10 64 8.0 12.9 0.00 0.00 0.00 76 1026.4
20200219235004 10 62 8.0 12.9 0.00 0.00 0.00 76 1026.6
20200219234504 10 71 9.7 12.9 0.00 0.00 0.00 76 1026.5
20200219234004 10 81 9.7 12.9 0.00 0.00 0.00 76 1026.7
20200219233503 10 80 9.7 11.3 0.00 0.00 0.00 77 1026.7
20200219233003 10 84 9.7 11.3 0.00 0.00 0.00 77 1026.7
20200219232503 10 87 8.0 11.3 0.00 0.00 0.00 77 1027.0
20200219232005 10 85 8.0 11.3 0.00 0.00 0.00 77 1026.9
20200219231504 10 81 8.0 11.3 0.00 0.00 0.00 77 1026.8
20200219231005 10 72 8.0 9.7 0.00 0.00 0.00 77 1027.0
20200219230504 10 69 6.4 9.7 0.00 0.00 0.00 77 1027.0
20200219230004 10 61 8.0 9.7 0.00 0.00 0.00 77 1027.0
20200219225504 10 49 8.0 9.7 0.00 0.00 0.00 77 1027.2
20200219225004 10 43 6.4 9.7 0.00 0.00 0.00 77 1027.2
20200219224503 10 38 6.4 9.7 0.00 0.00 0.00 77 1027.2
20200219224004 10 38 6.4 9.7 0.00 0.00 0.00 77 1027.3
20200219223503 10 43 6.4 9.7 0.00 0.00 0.00 76 1027.4
20200219223004 10 46 8.0 11.3 0.00 0.00 0.00 77 1027.4
20200219222504 10 46 9.7 12.9 0.00 0.00 0.00 77 1027.4
20200219222003 10 48 9.7 12.9 0.00 0.00 0.00 76 1027.6
20200219221504 10 49 9.7 12.9 0.00 0.00 0.00 76 1027.5
20200219221004 10 49 8.0 12.9 0.00 0.00 0.00 76 1027.4
20200219220503 10 36 4.8 9.7 0.00 0.00 0.00 76 1027.5
20200219220003 10 33 4.8 6.4 0.00 0.00 0.00 75 1027.5
20200219215504 10 45 6.4 9.7 0.00 0.00 0.00 75 1027.6
20200219215004 10 45 8.0 11.3 0.00 0.00 0.00 75 1027.5
20200219214504 10 46 8.0 11.3 0.00 0.00 0.00 75 1027.6
20200219214004 10 45 6.4 9.7 0.00 0.00 0.00 75 1027.8
20200219213504 10 38 4.8 8.0 0.00 0.00 0.00 75 1027.8
20200219213003 10 36 6.4 8.0 0.00 0.00 0.00 74 1027.6
20200219212504 10 41 6.4 8.0 0.00 0.00 0.00 74 1027.9
20200219212004 10 42 6.4 8.0 0.00 0.00 0.00 74 1027.9
20200219211505 10 40 6.4 9.7 0.00 0.00 0.00 74 1027.7
20200219211004 10 18 6.4 9.7 0.00 0.00 0.00 74 1027.9
20200219210504 10 6 6.4 9.7 0.00 0.00 0.00 74 1027.8
20200219210004 10 29 6.4 9.7 0.00 0.00 0.00 74 1027.9
20200219205504 10 44 8.0 9.7 0.00 0.00 0.00 74 1027.9
20200219205004 11 40 8.0 11.3 0.00 0.00 0.00 74 1027.9
20200219204503 11 42 8.0 12.9 0.00 0.00 0.00 74 1027.8
20200219204002 11 40 9.7 12.9 0.00 0.00 0.00 74 1027.8
20200219203502 11 38 9.7 14.5 0.00 0.00 0.00 74 1027.7
20200219203001 11 44 9.7 14.5 0.00 0.00 0.00 74 1027.8
20200219202501 11 41 8.0 12.9 0.00 0.00 0.00 74 1027.9
20200219202002 11 36 6.4 11.3 0.00 0.00 0.00 74 1027.9
20200219201501 11 25 6.4 11.3 0.00 0.00 0.00 74 1028.0
20200219201001 11 11 8.0 11.3 0.00 0.00 0.00 74 1028.0
20200219200502 11 3 6.4 11.3 0.00 0.00 0.00 74 1027.9
20200219200002 11 12 6.4 11.3 0.00 0.00 0.00 74 1027.8
20200219195502 11 11 8.0 11.3 0.00 0.00 0.00 74 1028.0
20200219195002 11 1 8.0 11.3 0.00 0.00 0.00 74 1028.1
20200219194501 11 1 8.0 11.3 0.00 0.00 0.00 74 1028.2
20200219194001 11 1 8.0 11.3 0.00 0.00 0.00 75 1028.2
20200219193502 11 1 6.4 9.7 0.00 0.00 0.00 75 1028.0
20200219193002 11 4 6.4 9.7 0.00 0.00 0.00 75 1028.1
20200219192501 11 4 8.0 12.9 0.00 0.00 0.00 75 1028.3
20200219192002 11 1 8.0 12.9 0.00 0.00 0.00 74 1028.2
20200219191502 11 1 8.0 12.9 0.00 0.00 0.00 74 1028.1
20200219191001 11 1 6.4 11.3 0.00 0.00 0.00 74 1028.3
20200219190502 11 356 6.4 8.0 0.00 0.00 0.00 73 1028.3
20200219190002 11 356 6.4 8.0 0.00 0.00 0.00 73 1028.3
20200219185502 11 1 6.4 9.7 0.00 0.00 0.00 73 1028.2
20200219185002 11 1 6.4 9.7 0.00 0.00 0.00 73 1028.4
20200219184501 11 1 8.0 9.7 0.00 0.00 0.00 73 1028.3
20200219184001 11 1 8.0 12.9 0.00 0.00 0.00 73 1028.1
20200219183502 11 1 9.7 14.5 0.00 0.00 0.00 73 1028.2
20200219183002 11 2 11.3 14.5 0.00 0.00 0.00 73 1028.2
20200219182502 11 5 11.3 14.5 0.00 0.00 0.00 73 1028.3
20200219182001 12 4 11.3 14.5 0.00 0.00 0.00 73 1028.4
20200219181501 12 359 9.7 12.9 0.00 0.00 0.00 73 1028.4
20200219181002 12 355 9.7 14.5 0.00 0.00 0.00 67 1028.4
20200219180502 12 353 9.7 14.5 0.00 0.00 0.00 67 1028.3
20200219180002 13 353 8.0 14.5 0.00 0.00 0.00 66 1028.3
20200219175502 13 356 8.0 16.1 0.00 0.00 0.00 66 1028.4
20200219175002 13 358 9.7 17.7 0.00 0.00 0.00 66 1028.3
20200219174502 13 351 11.3 17.7 0.00 0.00 0.00 65 1028.2
20200219174002 14 344 9.7 16.1 0.00 0.00 0.00 65 1028.3
20200219173502 14 347 11.3 16.1 0.00 0.00 0.00 65 1028.4
20200219173002 14 2 11.3 17.7 0.00 0.00 0.00 64 1028.5
20200219172501 14 358 12.9 17.7 0.00 0.00 0.00 64 1028.5
20200219172002 15 347 11.3 17.7 0.00 0.00 0.00 63 1028.5
20200219171502 15 332 9.7 16.1 0.00 0.00 0.00 63 1028.6
20200219171001 15 316 9.7 16.1 0.00 0.00 0.00 62 1028.5
20200219170502 15 333 12.9 17.7 0.00 0.00 0.00 59 1028.4
20200219170002 15 355 12.9 17.7 0.00 0.00 0.00 59 1028.7
20200219165502 15 342 11.3 17.7 0.00 0.00 0.00 59 1028.4
20200219165001 15 334 11.3 17.7 0.00 0.00 0.00 58 1028.4
20200219164502 15 336 11.3 19.3 0.00 0.00 0.00 56 1028.3
20200219164002 15 335 11.3 19.3 0.00 0.00 0.00 56 1028.5
20200219163502 15 340 12.9 19.3 0.00 0.00 0.00 56 1028.3
20200219163001 15 354 14.5 20.9 0.00 0.00 0.00 57 1028.5
20200219162502 15 356 14.5 20.9 0.00 0.00 0.00 57 1028.4
20200219162002 16 336 14.5 20.9 0.00 0.00 0.00 57 1028.4
20200219161502 15 333 16.1 20.9 0.00 0.00 0.00 56 1028.5
20200219161002 16 348 14.5 22.5 0.00 0.00 0.00 59 1028.7
20200219160502 16 341 16.1 24.1 0.00 0.00 0.00 59 1028.4
20200219160002 16 333 16.1 24.1 0.00 0.00 0.00 55 1028.6
20200219155501 16 330 16.1 24.1 0.00 0.00 0.00 55 1028.6
20200219155002 16 330 14.5 20.9 0.00 0.00 0.00 55 1028.7
20200219154503 16 335 12.9 20.9 0.00 0.00 0.00 53 1028.7
20200219154002 16 333 11.3 17.7 0.00 0.00 0.00 50 1028.8
20200219153502 17 326 11.3 17.7 0.00 0.00 0.00 50 1028.7
20200219153002 16 323 11.3 17.7 0.00 0.00 0.00 52 1028.8
20200219152502 16 339 11.3 17.7 0.00 0.00 0.00 52 1028.8
20200219152002 16 346 11.3 17.7 0.00 0.00 0.00 52 1028.8
20200219151501 16 338 12.9 17.7 0.00 0.00 0.00 52 1029.1
20200219151002 16 323 14.5 17.7 0.00 0.00 0.00 51 1028.9
20200219150502 16 329 14.5 20.9 0.00 0.00 0.00 50 1028.9
20200219150002 16 344 14.5 20.9 0.00 0.00 0.00 50 1029.1
20200219145501 16 347 14.5 20.9 0.00 0.00 0.00 51 1029.0
20200219145003 16 343 12.9 20.9 0.00 0.00 0.00 50 1029.3
20200219144502 16 329 9.7 16.1 0.00 0.00 0.00 51 1029.3
20200219144002 16 328 9.7 16.1 0.00 0.00 0.00 51 1029.3
20200219143501 17 348 11.3 16.1 0.00 0.00 0.00 53 1029.4
20200219143004 17 4 11.3 16.1 0.00 0.00 0.00 50 1029.5
20200219142501 17 352 11.3 19.3 0.00 0.00 0.00 51 1029.4
20200219142002 16 344 12.9 20.9 0.00 0.00 0.00 52 1029.6
20200219141502 16 350 12.9 20.9 0.00 0.00 0.00 49 1029.5
20200219141002 16 342 11.3 17.7 0.00 0.00 0.00 50 1029.9
20200219140502 16 336 9.7 14.5 0.00 0.00 0.00 51 1029.8
20200219140002 16 354 9.7 16.1 0.00 0.00 0.00 51 1029.7
20200219135503 16 356 11.3 17.7 0.00 0.00 0.00 53 1029.9
20200219135002 16 343 11.3 17.7 0.00 0.00 0.00 52 1030.0
20200219134502 16 346 9.7 19.3 0.00 0.00 0.00 53 1030.1
20200219134002 16 350 11.3 19.3 0.00 0.00 0.00 53 1029.9
20200219133502 16 353 11.3 14.5 0.00 0.00 0.00 54 1030.3
20200219133003 16 3 9.7 14.5 0.00 0.00 0.00 53 1030.2
20200219132502 16 356 11.3 17.7 0.00 0.00 0.00 53 1030.2
20200219132002 16 344 11.3 17.7 0.00 0.00 0.00 54 1030.5
20200219131502 16 335 9.7 14.5 0.00 0.00 0.00 54 1030.4
20200219131002 16 346 11.3 12.9 0.00 0.00 0.00 54 1030.6
20200219130502 17 344 9.7 12.9 0.00 0.00 0.00 48 1030.5
20200219130002 17 326 6.4 12.9 0.00 0.00 0.00 48 1030.8
20200219125502 18 340 6.4 11.3 0.00 0.00 0.00 48 1030.9
20200219125002 17 351 6.4 11.3 0.00 0.00 0.00 46 1031.1
20200219124502 17 350 6.4 14.5 0.00 0.00 0.00 46 1031.0
20200219124002 17 356 9.7 14.5 0.00 0.00 0.00 46 1030.9
20200219123502 17 353 9.7 14.5 0.00 0.00 0.00 46 1031.0
20200219123002 17 337 8.0 11.3 0.00 0.00 0.00 47 1031.2
20200219122503 17 322 6.4 11.3 0.00 0.00 0.00 45 1031.4
20200219122002 17 309 3.2 8.0 0.00 0.00 0.00 45 1031.3
20200219121504 17 320 3.2 6.4 0.00 0.00 0.00 44 1031.6
20200219121002 17 318 4.8 6.4 0.00 0.00 0.00 44 1031.6
20200219120503 17 325 4.8 6.4 0.00 0.00 0.00 44 1031.7
20200219120003 17 319 3.2 6.4 0.00 0.00 0.00 44 1031.5
20200219115503 17 322 3.2 6.4 0.00 0.00 0.00 48 1031.7
20200219115002 17 336 3.2 6.4 0.00 0.00 0.00 49 1032.2
20200219114502 16 316 3.2 6.4 0.00 0.00 0.00 49 1032.0
20200219114002 16 308 3.2 6.4 0.00 0.00 0.00 49 1031.9
20200219113503 16 306 1.6 6.4 0.00 0.00 0.00 48 1032.1
20200219113002 16 311 1.6 6.4 0.00 0.00 0.00 47 1032.0
20200219112502 16 315 1.6 6.4 0.00 0.00 0.00 48 1032.2
20200219112002 16 314 0.0 3.2 0.00 0.00 0.00 49 1032.1
20200219111503 15 299 1.6 6.4 0.00 0.00 0.00 49 1032.2
20200219111003 15 305 3.2 6.4 0.00 0.00 0.00 50 1032.2
20200219110502 15 290 3.2 6.4 0.00 0.00 0.00 50 1032.3
20200219110003 15 276 3.2 8.0 0.00 0.00 0.00 50 1032.4
20200219105502 15 261 3.2 8.0 0.00 0.00 0.00 48 1032.3
20200219105002 15 239 1.6 6.4 0.00 0.00 0.00 49 1032.4
20200219104502 16 0 0.0 0.0 0.00 0.00 0.00 50 1032.2
20200219104002 15 239 1.6 4.8 0.00 0.00 0.00 51 1032.4
20200219103503 15 249 1.6 6.4 0.00 0.00 0.00 51 1032.4
20200219103002 15 267 0.0 6.4 0.00 0.00 0.00 49 1032.4
20200219102502 16 0 0.0 0.0 0.00 0.00 0.00 50 1032.5
20200219102002 15 0 0.0 0.0 0.00 0.00 0.00 53 1032.4
20200219101503 14 0 0.0 0.0 0.00 0.00 0.00 53 1032.5
20200219101003 14 222 0.0 3.2 0.00 0.00 0.00 50 1032.6
20200219100502 15 187 1.6 4.8 0.00 0.00 0.00 50 1032.7
20200219100002 14 169 3.2 4.8 0.00 0.00 0.00 50 1032.8
20200219095502 13 171 1.6 4.8 0.00 0.00 0.00 52 1032.4
20200219095004 14 218 0.0 4.8 0.00 0.00 0.00 51 1032.5
20200219094504 15 270 0.0 1.6 0.00 0.00 0.00 53 1032.5
20200219094002 14 272 1.6 6.4 0.00 0.00 0.00 56 1032.6
20200219093503 12 270 3.2 6.4 0.00 0.00 0.00 58 1032.5
20200219093002 12 323 3.2 8.0 0.00 0.00 0.00 55 1032.6
20200219092502 13 26 4.8 11.3 0.00 0.00 0.00 50 1032.4
20200219092002 12 11 6.4 11.3 0.00 0.00 0.00 51 1032.4
20200219091502 12 1 6.4 11.3 0.00 0.00 0.00 55 1032.4
20200219091002 11 1 6.4 11.3 0.00 0.00 0.00 55 1032.4
20200219090502 11 3 6.4 11.3 0.00 0.00 0.00 56 1032.8
20200219090002 11 14 9.7 14.5 0.00 0.00 0.00 56 1032.5
20200219085502 11 24 9.7 14.5 0.00 0.00 0.00 56 1032.5
20200219085002 10 32 9.7 14.5 0.00 0.00 0.00 57 1032.2
20200219084502 10 43 11.3 12.9 0.00 0.00 0.00 58 1032.3
20200219084003 10 43 11.3 16.1 0.00 0.00 0.00 59 1032.0
20200219083502 9 35 14.5 24.1 0.00 0.00 0.00 59 1031.9
20200219083003 9 32 14.5 27.4 0.00 0.00 0.00 60 1031.8
20200219082503 8 40 14.5 27.4 0.00 0.00 0.00 61 1031.8
20200219082002 8 43 12.9 19.3 0.00 0.00 0.00 62 1031.8
20200219081502 8 39 12.9 25.7 0.00 0.00 0.00 62 1031.7
20200219081003 8 16 16.1 25.7 0.00 0.00 0.00 63 1031.7
20200219080502 8 14 17.7 24.1 0.00 0.00 0.00 63 1031.7
20200219080003 8 26 16.1 24.1 0.00 0.00 0.00 63 1031.5
20200219075503 8 34 12.9 24.1 0.00 0.00 0.00 64 1031.8
20200219075002 7 44 9.7 14.5 0.00 0.00 0.00 66 1031.7
20200219074503 7 46 9.7 17.7 0.00 0.00 0.00 71 1031.5
20200219074003 7 36 11.3 17.7 0.00 0.00 0.00 72 1031.4
20200219073502 7 22 11.3 17.7 0.00 0.00 0.00 72 1031.2
20200219073003 7 27 12.9 22.5 0.00 0.00 0.00 72 1031.3
20200219072503 7 32 12.9 22.5 0.00 0.00 0.00 71 1031.3
20200219072002 7 21 12.9 22.5 0.00 0.00 0.00 72 1031.2
20200219071503 7 4 11.3 17.7 0.00 0.00 0.00 73 1031.2
20200219071002 7 24 12.9 19.3 0.00 0.00 0.00 73 1031.1